FW8343 Weather Reports


time (UTC)temp
C
wind
direction
speed
KPH
gust
KPH
rain 1hr
cm
rain 24hr
cm
rain mn
cm
humidity
%
barometer
mb
20260507090512 2 0 0.0 4.8 0.00 0.00 0.00 71 1012.2
20260507090030 2 0 0.0 3.2 0.00 0.00 0.00 71 1012.2
20260507085512 2 0 0.0 3.2 0.00 0.00 0.00 72 1012.2
20260507085012 2 0 0.0 4.8 0.00 0.00 0.00 71 1012.3
20260507084532 2 0 0.0 4.8 0.00 0.00 0.00 71 1012.3
20260507084009 2 0 0.0 4.8 0.00 0.00 0.00 71 1012.4
20260507083513 2 0 0.0 3.2 0.00 0.00 0.00 71 1012.4
20260507083030 2 0 0.0 3.2 0.00 0.00 0.00 71 1012.4
20260507082510 2 0 0.0 3.2 0.00 0.00 0.00 71 1012.3
20260507082014 2 0 0.0 3.2 0.00 0.00 0.00 71 1012.3
20260507081532 2 285 0.0 3.2 0.00 0.00 0.00 71 1012.4
20260507081013 2 0 0.0 3.2 0.00 0.00 0.00 71 1012.4
20260507080512 2 0 0.0 4.8 0.00 0.00 0.00 70 1012.4
20260507080038 2 0 0.0 4.8 0.00 0.00 0.00 71 1012.4
20260507075511 2 0 0.0 3.2 0.00 0.00 0.00 70 1012.4
20260507075011 2 0 0.0 4.8 0.00 0.00 0.00 70 1012.4
20260507074530 2 0 0.0 4.8 0.00 0.00 0.00 70 1012.5
20260507074014 2 285 0.0 6.4 0.00 0.00 0.00 70 1012.5
20260507073512 2 0 0.0 6.4 0.00 0.00 0.00 69 1012.6
20260507073029 2 285 0.0 6.4 0.00 0.00 0.00 70 1012.6
20260507072510 2 0 0.0 4.8 0.00 0.00 0.00 69 1012.7
20260507072012 2 0 0.0 3.2 0.00 0.00 0.00 70 1012.7
20260507071557 2 0 0.0 3.2 0.00 0.00 0.00 70 1012.7
20260507071011 2 0 0.0 3.2 0.00 0.00 0.00 70 1012.8
20260507070514 2 0 0.0 6.4 0.00 0.00 0.00 68 1012.9
20260507070033 2 0 1.6 6.4 0.00 0.00 0.00 68 1012.9
20260507065509 2 0 0.0 4.8 0.00 0.00 0.00 68 1012.8
20260507065013 2 0 0.0 4.8 0.00 0.00 0.00 68 1012.9
20260507064531 2 0 0.0 1.6 0.00 0.00 0.00 68 1012.9
20260507064013 3 0 0.0 4.8 0.00 0.00 0.00 69 1012.9
20260507063514 3 0 0.0 9.7 0.00 0.00 0.00 68 1013.0
20260507063029 3 0 1.6 9.7 0.00 0.00 0.00 69 1013.0
20260507062516 3 225 3.2 9.7 0.00 0.00 0.00 69 1013.0
20260507062016 3 225 3.2 8.0 0.00 0.00 0.00 70 1013.1
20260507061530 2 225 4.8 8.0 0.00 0.00 0.00 69 1013.2
20260507061011 2 225 1.6 8.0 0.00 0.00 0.00 69 1013.2
20260507060511 2 0 0.0 0.0 0.00 0.00 0.00 69 1013.3
20260507060036 2 0 0.0 0.0 0.00 0.00 0.00 68 1013.3
20260507055509 2 0 0.0 0.0 0.00 0.00 0.00 67 1013.3
20260507055014 2 0 0.0 0.0 0.00 0.00 0.00 68 1013.4
20260507054531 2 0 0.0 1.6 0.00 0.00 0.00 67 1013.4
20260507054014 2 0 0.0 3.2 0.00 0.00 0.00 69 1013.5
20260507053512 2 0 0.0 3.2 0.00 0.00 0.00 67 1013.4
20260507053042 2 273 0.0 3.2 0.00 0.00 0.00 67 1013.5
20260507052510 2 0 0.0 4.8 0.00 0.00 0.00 66 1013.6
20260507052008 2 0 0.0 4.8 0.00 0.00 0.00 66 1013.7
20260507051538 2 273 0.0 4.8 0.00 0.00 0.00 66 1013.6
20260507051009 2 0 0.0 3.2 0.00 0.00 0.00 66 1013.7
20260507050511 2 0 0.0 3.2 0.00 0.00 0.00 66 1013.7
20260507050035 3 0 0.0 4.8 0.00 0.00 0.00 66 1013.8
20260507045509 3 273 1.6 4.8 0.00 0.00 0.00 66 1013.8
20260507045012 3 0 1.6 4.8 0.00 0.00 0.00 66 1013.8
20260507044531 3 273 0.0 3.2 0.00 0.00 0.00 67 1013.9
20260507044012 3 273 0.0 4.8 0.00 0.00 0.00 65 1013.9
20260507043514 3 273 0.0 4.8 0.00 0.00 0.00 66 1013.9
20260507043031 3 273 0.0 4.8 0.00 0.00 0.00 65 1013.9
20260507042512 3 273 0.0 4.8 0.00 0.00 0.00 65 1013.9
20260507042016 3 273 1.6 4.8 0.00 0.00 0.00 65 1014.0
20260507041530 3 273 1.6 4.8 0.00 0.00 0.00 65 1014.0
20260507041010 3 0 1.6 4.8 0.00 0.00 0.00 65 1013.9
20260507040512 3 273 1.6 4.8 0.00 0.00 0.00 65 1014.1
20260507040030 3 273 1.6 4.8 0.00 0.00 0.00 64 1014.1
20260507035510 3 273 1.6 4.8 0.00 0.00 0.00 64 1014.1
20260507035012 3 273 0.0 4.8 0.00 0.00 0.00 65 1014.1
20260507034536 3 273 0.0 4.8 0.00 0.00 0.00 64 1014.2
20260507034011 3 273 0.0 3.2 0.00 0.00 0.00 65 1014.2
20260507033512 3 273 0.0 4.8 0.00 0.00 0.00 64 1014.1
20260507033040 3 273 0.0 4.8 0.00 0.00 0.00 64 1014.3
20260507032511 3 273 0.0 4.8 0.00 0.00 0.00 64 1014.2
20260507032012 3 0 0.0 4.8 0.00 0.00 0.00 64 1014.2
20260507031529 3 273 0.0 3.2 0.00 0.00 0.00 64 1014.2
20260507031013 3 273 0.0 4.8 0.00 0.00 0.00 65 1014.3
20260507030514 3 273 0.0 4.8 0.00 0.00 0.00 63 1014.2
20260507030032 3 0 0.0 3.2 0.00 0.00 0.00 64 1014.2
20260507025511 3 273 0.0 3.2 0.00 0.00 0.00 63 1014.2
20260507025015 3 0 0.0 3.2 0.00 0.00 0.00 62 1014.2
20260507024536 3 273 0.0 3.2 0.00 0.00 0.00 63 1014.2
20260507024009 3 273 0.0 3.2 0.00 0.00 0.00 62 1014.2
20260507023514 3 0 0.0 3.2 0.00 0.00 0.00 62 1014.2
20260507023035 3 0 0.0 4.8 0.00 0.00 0.00 63 1014.2
20260507022511 3 273 0.0 6.4 0.00 0.00 0.00 62 1014.2
20260507022013 3 273 1.6 6.4 0.00 0.00 0.00 61 1014.3
20260507021531 3 0 0.0 4.8 0.00 0.00 0.00 63 1014.2
20260507021015 3 224 0.0 4.8 0.00 0.00 0.00 61 1014.2
20260507020515 3 0 0.0 4.8 0.00 0.00 0.00 61 1014.1
20260507020029 3 0 0.0 4.8 0.00 0.00 0.00 61 1014.1
20260507015511 3 267 1.6 4.8 0.00 0.00 0.00 61 1014.1
20260507015017 3 0 1.6 8.0 0.00 0.00 0.00 62 1014.1
20260507014530 3 267 1.6 11.3 0.00 0.00 0.00 61 1014.0
20260507014011 3 267 3.2 11.3 0.00 0.00 0.00 61 1014.1
20260507013510 3 259 3.2 11.3 0.00 0.00 0.00 60 1014.0
20260507013029 3 229 3.2 11.3 0.00 0.00 0.00 61 1014.0
20260507012509 3 270 3.2 9.7 0.00 0.00 0.00 60 1014.1
20260507012010 3 290 3.2 6.4 0.00 0.00 0.00 60 1014.1
20260507011538 3 252 1.6 6.4 0.00 0.00 0.00 60 1014.0
20260507011011 4 0 1.6 9.7 0.00 0.00 0.00 60 1014.0
20260507010512 4 270 3.2 9.7 0.00 0.00 0.00 60 1014.1
20260507010035 4 267 3.2 9.7 0.00 0.00 0.00 60 1014.0
20260507005512 4 267 0.0 4.8 0.00 0.00 0.00 60 1014.0
20260507005010 4 0 1.6 6.4 0.00 0.00 0.00 59 1013.9
20260507004536 4 267 1.6 11.3 0.00 0.00 0.00 59 1013.9
20260507004011 4 267 3.2 12.9 0.00 0.00 0.00 58 1014.0
20260507003516 4 270 4.8 12.9 0.00 0.00 0.00 58 1013.9
20260507003030 4 259 3.2 12.9 0.00 0.00 0.00 58 1013.9
20260507002511 4 273 3.2 11.3 0.00 0.00 0.00 58 1014.0
20260507002017 4 265 3.2 11.3 0.00 0.00 0.00 59 1013.9
20260507001530 4 264 3.2 11.3 0.00 0.00 0.00 59 1013.9
20260507001012 4 275 3.2 11.3 0.00 0.00 0.00 58 1013.9
20260507000514 4 259 3.2 9.7 0.00 0.00 0.00 58 1014.0
20260507000032 4 276 3.2 11.3 0.00 0.00 0.00 59 1014.0
20260506235511 4 273 3.2 12.9 0.00 0.00 0.00 58 1014.0
20260506235012 4 269 4.8 12.9 0.00 0.00 0.00 58 1014.1
20260506234530 4 286 6.4 12.9 0.00 0.00 0.00 58 1014.0
20260506234011 4 259 4.8 12.9 0.00 0.00 0.00 58 1014.1
20260506233510 4 271 4.8 12.9 0.00 0.00 0.00 59 1014.1
20260506233031 4 248 3.2 12.9 0.00 0.00 0.00 60 1014.1
20260506232511 4 248 4.8 12.9 0.00 0.00 0.00 59 1014.1
20260506232013 4 281 6.4 12.9 0.00 0.00 0.00 59 1014.1
20260506231529 4 256 4.8 14.5 0.00 0.00 0.00 59 1014.2
20260506231010 5 265 8.0 14.5 0.00 0.00 0.00 59 1014.1
20260506230512 5 274 4.8 14.5 0.00 0.00 0.00 60 1014.1
20260506230036 5 265 3.2 14.5 0.00 0.00 0.00 59 1014.1
20260506225513 5 286 3.2 12.9 0.00 0.00 0.00 59 1014.1
20260506225015 5 275 4.8 12.9 0.00 0.00 0.00 59 1014.1
20260506224534 5 323 4.8 14.5 0.00 0.00 0.00 59 1014.1
20260506224012 5 269 6.4 14.5 0.00 0.00 0.00 59 1014.1
20260506223517 5 246 4.8 14.5 0.00 0.00 0.00 59 1013.9
20260506223027 5 257 6.4 14.5 0.00 0.00 0.00 57 1014.0
20260506222511 5 270 4.8 14.5 0.00 0.00 0.00 57 1013.9
20260506222013 5 259 6.4 14.5 0.00 0.00 0.00 57 1013.9
20260506221531 5 267 6.4 14.5 0.00 0.00 0.00 58 1013.9
20260506221009 5 258 3.2 11.3 0.00 0.00 0.00 59 1013.9
20260506220511 5 227 4.8 11.3 0.00 0.00 0.00 59 1013.9
20260506220038 5 190 4.8 16.1 0.00 0.00 0.00 59 1013.9
20260506215507 5 250 3.2 16.1 0.00 0.00 0.00 58 1013.9
20260506215012 5 276 6.4 14.5 0.00 0.00 0.00 57 1013.9
20260506214531 5 242 6.4 12.9 0.00 0.00 0.00 57 1013.9
20260506214011 5 265 4.8 16.1 0.00 0.00 0.00 58 1014.0
20260506213510 5 259 4.8 16.1 0.00 0.00 0.00 56 1013.9
20260506213032 5 274 3.2 14.5 0.00 0.00 0.00 59 1013.9
20260506212514 5 262 8.0 14.5 0.00 0.00 0.00 55 1014.0
20260506212013 5 263 3.2 12.9 0.00 0.00 0.00 58 1013.9
20260506211533 5 255 1.6 12.9 0.00 0.00 0.00 59 1014.0
20260506211007 5 269 8.0 14.5 0.00 0.00 0.00 56 1014.0
20260506210512 5 273 3.2 14.5 0.00 0.00 0.00 58 1014.0
20260506210030 5 274 4.8 12.9 0.00 0.00 0.00 58 1014.0
20260506205510 5 279 4.8 16.1 0.00 0.00 0.00 56 1014.1
20260506205014 5 281 1.6 16.1 0.00 0.00 0.00 58 1014.1
20260506204530 5 266 6.4 16.1 0.00 0.00 0.00 58 1014.1
20260506204013 5 242 4.8 14.5 0.00 0.00 0.00 56 1014.1
20260506203511 5 276 6.4 14.5 0.00 0.00 0.00 57 1014.2
20260506203031 5 273 3.2 14.5 0.00 0.00 0.00 58 1014.1
20260506202509 5 266 4.8 14.5 0.00 0.00 0.00 57 1014.2
20260506202019 4 269 4.8 12.9 0.00 0.00 0.00 57 1014.2
20260506201532 4 227 6.4 16.1 0.00 0.00 0.00 57 1014.2
20260506201008 4 250 8.0 16.1 0.00 0.00 0.00 57 1014.3
20260506200511 4 275 6.4 14.5 0.00 0.00 0.00 58 1014.4
20260506200030 4 244 3.2 11.3 0.00 0.00 0.00 60 1014.4
20260506195510 4 262 4.8 11.3 0.00 0.00 0.00 57 1014.4
20260506195012 4 255 3.2 12.9 0.00 0.00 0.00 60 1014.4
20260506194528 4 268 3.2 16.1 0.00 0.00 0.00 60 1014.4
20260506194009 4 267 8.0 16.1 0.00 0.00 0.00 58 1014.4
20260506193512 4 253 6.4 11.3 0.00 0.00 0.00 57 1014.4
20260506193027 4 241 4.8 16.1 0.00 0.00 0.00 58 1014.4
20260506192510 4 291 6.4 16.1 0.00 0.00 0.00 57 1014.4
20260506192011 4 227 3.2 16.1 0.00 0.00 0.00 59 1014.5
20260506191530 4 276 4.8 16.1 0.00 0.00 0.00 60 1014.4
20260506191010 4 263 4.8 16.1 0.00 0.00 0.00 58 1014.4
20260506190515 4 279 1.6 16.1 0.00 0.00 0.00 59 1014.4
20260506190030 4 283 4.8 12.9 0.00 0.00 0.00 58 1014.4
20260506185509 4 0 0.0 11.3 0.00 0.00 0.00 61 1014.4
20260506185013 4 254 3.2 9.7 0.00 0.00 0.00 60 1014.3
20260506184529 3 268 1.6 12.9 0.00 0.00 0.00 61 1014.4
20260506184017 3 232 3.2 12.9 0.00 0.00 0.00 61 1014.4
20260506183510 3 226 3.2 14.5 0.00 0.00 0.00 60 1014.4
20260506183030 3 290 4.8 14.5 0.00 0.00 0.00 59 1014.5
20260506182512 3 281 4.8 14.5 0.00 0.00 0.00 60 1014.5
20260506182014 3 235 4.8 14.5 0.00 0.00 0.00 58 1014.5
20260506181532 3 275 4.8 12.9 0.00 0.00 0.00 60 1014.5
20260506181010 3 236 4.8 19.3 0.00 0.00 0.00 59 1014.5
20260506180512 3 268 8.0 19.3 0.00 0.00 0.00 60 1014.5
20260506180032 3 223 3.2 19.3 0.00 0.00 0.00 59 1014.5
20260506175515 3 246 6.4 19.3 0.00 0.00 0.00 59 1014.5
20260506175017 3 284 8.0 17.7 0.00 0.00 0.00 58 1014.5
20260506174532 3 231 3.2 17.7 0.00 0.00 0.00 60 1014.5
20260506174010 3 223 8.0 17.7 0.00 0.00 0.00 58 1014.5
20260506173515 3 273 4.8 19.3 0.00 0.00 0.00 60 1014.6
20260506173030 3 220 6.4 19.3 0.00 0.00 0.00 59 1014.6
20260506172511 3 244 6.4 14.5 0.00 0.00 0.00 58 1014.6
20260506172012 3 240 6.4 16.1 0.00 0.00 0.00 60 1014.6
20260506171530 4 273 3.2 16.1 0.00 0.00 0.00 60 1014.6
20260506171010 4 275 6.4 12.9 0.00 0.00 0.00 58 1014.6
20260506170512 3 271 3.2 14.5 0.00 0.00 0.00 59 1014.7
20260506170033 3 275 6.4 14.5 0.00 0.00 0.00 58 1014.6
20260506165513 3 272 8.0 14.5 0.00 0.00 0.00 57 1014.6
20260506165011 3 273 6.4 16.1 0.00 0.00 0.00 59 1014.6
20260506164531 3 225 4.8 16.1 0.00 0.00 0.00 58 1014.6
20260506164010 3 307 3.2 12.9 0.00 0.00 0.00 60 1014.7
20260506163511 3 229 4.8 14.5 0.00 0.00 0.00 59 1014.7
20260506163032 3 280 4.8 14.5 0.00 0.00 0.00 59 1014.7
20260506162513 3 284 1.6 12.9 0.00 0.00 0.00 61 1014.8
20260506162011 3 277 4.8 12.9 0.00 0.00 0.00 58 1014.7
20260506161535 3 261 4.8 12.9 0.00 0.00 0.00 59 1014.7
20260506161011 3 248 3.2 16.1 0.00 0.00 0.00 57 1014.7
20260506160517 3 263 4.8 16.1 0.00 0.00 0.00 57 1014.6
20260506160031 3 257 3.2 16.1 0.00 0.00 0.00 59 1014.6
20260506155513 3 281 4.8 14.5 0.00 0.00 0.00 60 1014.6
20260506155015 3 232 3.2 14.5 0.00 0.00 0.00 59 1014.6
20260506154533 3 267 3.2 17.7 0.00 0.00 0.00 61 1014.6
20260506154011 3 227 6.4 17.7 0.00 0.00 0.00 59 1014.6
20260506153512 3 282 4.8 17.7 0.00 0.00 0.00 61 1014.6
20260506153031 3 286 6.4 17.7 0.00 0.00 0.00 59 1014.6
20260506152509 3 270 4.8 12.9 0.00 0.00 0.00 58 1014.5
20260506152017 3 286 4.8 12.9 0.00 0.00 0.00 58 1014.5
20260506151530 3 275 4.8 12.9 0.00 0.00 0.00 58 1014.4
20260506151010 3 275 4.8 12.9 0.00 0.00 0.00 58 1014.4
20260506150511 3 271 3.2 11.3 0.00 0.00 0.00 60 1014.4
20260506150030 3 262 3.2 16.1 0.00 0.00 0.00 59 1014.3
20260506145510 2 298 4.8 16.1 0.00 0.00 0.00 59 1014.5
20260506145012 3 273 4.8 14.5 0.00 0.00 0.00 58 1014.4
20260506144540 3 0 1.6 14.5 0.00 0.00 0.00 59 1014.4
20260506144015 3 229 3.2 14.5 0.00 0.00 0.00 61 1014.4
20260506143516 3 307 4.8 14.5 0.00 0.00 0.00 61 1014.4
20260506143032 3 250 6.4 16.1 0.00 0.00 0.00 61 1014.5
20260506142511 3 304 3.2 16.1 0.00 0.00 0.00 62 1014.6
20260506142011 3 242 3.2 16.1 0.00 0.00 0.00 63 1014.6
20260506141536 2 355 1.6 12.9 0.00 0.00 0.00 66 1014.6
20260506141011 2 317 3.2 12.9 0.00 0.00 0.00 64 1014.6
20260506140512 2 228 1.6 12.9 0.00 0.00 0.00 66 1014.6
20260506140032 2 311 3.2 12.9 0.00 0.00 0.00 64 1014.6
20260506135510 2 0 3.2 12.9 0.00 0.00 0.00 66 1014.6
20260506135017 2 267 3.2 11.3 0.00 0.00 0.00 68 1014.5
20260506134530 2 290 3.2 11.3 0.00 0.00 0.00 68 1014.5
20260506134013 1 255 4.8 12.9 0.00 0.00 0.00 67 1014.5
20260506133512 1 240 4.8 12.9 0.00 0.00 0.00 68 1014.5
20260506133030 1 278 3.2 14.5 0.00 0.00 0.00 69 1014.5
20260506132511 1 263 6.4 14.5 0.00 0.00 0.00 68 1014.5
20260506132015 1 256 6.4 12.9 0.00 0.00 0.00 69 1014.4
20260506131532 1 267 4.8 12.9 0.00 0.00 0.00 69 1014.3
20260506131011 1 263 3.2 12.9 0.00 0.00 0.00 70 1014.3
20260506130514 0 261 4.8 12.9 0.00 0.00 0.00 69 1014.4
20260506130031 0 255 3.2 11.3 0.00 0.00 0.00 71 1014.4
20260506125512 0 256 3.2 12.9 0.00 0.00 0.00 70 1014.5
20260506125013 0 261 4.8 12.9 0.00 0.00 0.00 70 1014.3
20260506124531 0 281 4.8 14.5 0.00 0.00 0.00 70 1014.4
20260506124010 0 256 4.8 14.5 0.00 0.00 0.00 70 1014.2
20260506123515 0 284 1.6 11.3 0.00 0.00 0.00 72 1014.3
20260506123030 0 265 4.8 9.7 0.00 0.00 0.00 71 1014.2
20260506122510 0 261 3.2 11.3 0.00 0.00 0.00 72 1014.2
20260506122018 0 266 4.8 11.3 0.00 0.00 0.00 71 1014.1
20260506121530 0 260 1.6 11.3 0.00 0.00 0.00 72 1014.0
20260506121011 0 260 4.8 11.3 0.00 0.00 0.00 71 1013.8
20260506120513 0 263 1.6 6.4 0.00 0.00 0.00 72 1013.8
20260506120031 0 263 3.2 6.4 0.00 0.00 0.00 72 1013.8
20260506115514 0 270 1.6 6.4 0.00 0.00 0.00 72 1013.7
20260506115015 0 259 1.6 4.8 0.00 0.00 0.00 72 1013.6
20260506114530 0 259 1.6 6.4 0.00 0.00 0.00 72 1013.5
20260506114012 0 0 0.0 6.4 0.00 0.00 0.00 71 1013.5
20260506113513 0 259 1.6 6.4 0.00 0.00 0.00 71 1013.4
20260506113032 0 259 1.6 9.7 0.00 0.00 0.00 70 1013.3
20260506112510 0 259 1.6 9.7 0.00 0.00 0.00 69 1013.3
20260506112015 0 259 3.2 9.7 0.00 0.00 0.00 69 1013.3
20260506111531 0 306 0.0 8.0 0.00 0.00 0.00 69 1013.3
20260506111012 0 263 0.0 6.4 0.00 0.00 0.00 69 1013.2
20260506110512 0 263 3.2 6.4 0.00 0.00 0.00 68 1013.2
20260506110030 0 344 1.6 6.4 0.00 0.00 0.00 68 1013.1
20260506105512 0 344 1.6 6.4 0.00 0.00 0.00 67 1013.1
20260506105014 0 288 1.6 9.7 0.00 0.00 0.00 66 1013.1
20260506104533 0 292 3.2 12.9 0.00 0.00 0.00 66 1013.2
20260506104016 0 355 1.6 12.9 0.00 0.00 0.00 65 1013.1
20260506103514 0 281 4.8 12.9 0.00 0.00 0.00 65 1013.1
20260506103032 0 280 1.6 12.9 0.00 0.00 0.00 67 1013.1
20260506102511 1 277 3.2 12.9 0.00 0.00 0.00 67 1013.0
20260506102013 1 0 1.6 11.3 0.00 0.00 0.00 68 1013.0
20260506101532 1 257 1.6 6.4 0.00 0.00 0.00 68 1013.0
20260506101010 1 262 1.6 6.4 0.00 0.00 0.00 68 1013.0
20260506100515 1 262 1.6 6.4 0.00 0.00 0.00 67 1013.0
20260506100031 1 262 3.2 6.4 0.00 0.00 0.00 67 1013.0
20260506095513 1 265 1.6 4.8 0.00 0.00 0.00 68 1013.0
20260506095009 1 265 1.6 11.3 0.00 0.00 0.00 68 1013.0
20260506094531 1 265 1.6 11.3 0.00 0.00 0.00 67 1013.1
20260506094010 1 256 3.2 11.3 0.00 0.00 0.00 67 1013.0
20260506093513 1 252 3.2 6.4 0.00 0.00 0.00 67 1012.9
20260506093038 1 252 0.0 6.4 0.00 0.00 0.00 67 1012.9
20260506092509 1 321 1.6 4.8 0.00 0.00 0.00 67 1012.9
20260506092016 1 321 0.0 4.8 0.00 0.00 0.00 67 1012.8
20260506091532 1 0 1.6 4.8 0.00 0.00 0.00 67 1012.8
20260506091011 1 0 1.6 6.4 0.00 0.00 0.00 67 1012.8